Regional Weather Roundup
Issued by NWS

Home | Current Version | Previous Version | Text Only | Print | Product List | Glossary Off
Versions: 1 2 3 4 5 6 7 8 9 10 11 12 13 14 15 16 17 18 19 20 21 22 23 24 25 26 27

000
ASUS45 KBOI 171010
RWRID

IDAHO REGIONAL WEATHER ROUNDUP
NATIONAL WEATHER SERVICE BOISE ID
300 AM MST FRI NOV 17 2017

NOTE: "FAIR" INDICATES FEW OR NO CLOUDS BELOW 12000 FEET
WITH NO SIGNIFICANT WEATHER AND/OR OBSTRUCTIONS TO VISIBILITY

IDZ012-014-171100-
SOUTHWEST IDAHO


CITY           SKY/WX    TMP DP  RH WIND       PRES   REMARKS
BOISE          CLOUDY    42  33  70 E3        29.78R
CALDWELL       CLOUDY    42  35  76 NW3       29.77R
MOUNTAIN HOME  DRIZZLE   40  40 100 NW8       29.79R WCI  34
$$

IDZ016-017-171100-
SOUTHCENTRAL IDAHO


CITY           SKY/WX    TMP DP  RH WIND       PRES   REMARKS
BURLEY         PTCLDY    37  33  85 W7        29.73S WCI  32
JEROME         CLOUDY    37  34  89 S7        29.75S WCI  32
TWIN FALLS     MOCLDY    36  36 100 W6        29.75R WCI  31
$$

IDZ019>023-171100-
SOUTHEAST IDAHO


CITY           SKY/WX    TMP DP  RH WIND       PRES   REMARKS
IDAHO FALLS    CLOUDY    37  37 100 SW15      29.71S WCI  28
POCATELLO      CLOUDY    38  37  97 SW12      29.74R WCI  30
REXBURG        CLOUDY    37  36  96 SW13G22   29.70S WCI  29
$$

IDZ006-010-011-018-031-032-171100-
CENTRAL IDAHO MOUNTAINS


CITY           SKY/WX    TMP DP  RH WIND       PRES   REMARKS
MCCALL         CLOUDY    29  27  92 NE3       29.69R
HAILEY         CLOUDY    32  32 100 SE7       29.71R WCI  26
STANLEY          N/A     28  25  88 N5        29.70R WCI  23
SALMON         PTCLDY    28  26  92 CALM      29.68R
CHALLIS        MOCLDY    31  24  75 N5        29.68R WCI  26
$$

IDZ002-004-006-007-026-171100-
NORTHERN IDAHO


CITY           SKY/WX    TMP DP  RH WIND       PRES   REMARKS
LEWISTON       CLOUDY    38  35  89 E3        29.74R
LOWELL           N/A     37  35  92 CALM      29.77R
COEUR D`ALENE  LGT RAIN  38  33  82 SW3       29.67R
MULLAN PASS    LGT SNOW  23  21  92 SW9G20    29.57R FOG     WCI  13
$$




USA.gov is the U.S. government's official web portal to all federal, state and local government web resources and services.